User: anonymous   Login
Location: Unspecified
(0.0000°N, 0.0000°E)
Time: 14:34:53
(UTC+00:00)
Language:

TABLETSAT AURORA - Orbit

View from above orbital plane
View from above orbital plane
View from above satellite
View from above satellite

Ground track
Ground track

The orbit data is extracted from the following two-line orbital elements,

1 40017U 14033H   17084.95004050 +.00000221 +00000-0 +27133-4 0  9991
2 40017 097.9446 004.7215 0022361 241.3826 118.5143 14.92692757150542
Epoch (UTC): 25 March 2017 22:48:03
Eccentricity: 0.0022361
inclination: 97.9446°
perigee height: 574 km
apogee height: 605 km
right ascension of ascending node: 4.7215°
argument of perigee: 241.3826°
revolutions per day: 14.92692757
mean anomaly at epoch: 118.5143°
orbit number at epoch: 15054

The dashed part of the orbit path shows where the satellite is in the earth's shadow,  

DLR